Location: Cerda�ola
(41.4919°N, 2.1403°E)
Time: 03:20:19
(UTC+00:00)

SPOT 3 Rocket - Pass Details

Date: 29 March 2020
Orbit: 779 x 795 km, 98.8° (Epoch: 31 May)

Event Time Altitude Azimuth Distance (km) Brightness Sun altitude
Exits shadow 20:00:46 24° 166° (SSE) 1,614 4.8 -20.1°
Maximum altitude 20:04:03 88° 257° (WSW) 801 3.5 -20.6°
Drops below altitude 10° 20:09:18 10° 346° (NNW) 2,369 6.6 -21.5°
Sets 20:11:38 0° 347° (NNW) 3,301 7.4 -21.9°
